Regional Weather Roundup
Issued by NWS Green Bay, WI

Home | Current Version | Previous Version | Graphics & Text | Print | Product List | Glossary Off
Versions: 1 2 3 4 5 6 7 8 9 10 11 12 13 14 15 16 17 18 19 20 21 22 23 24 25 26 27 28 29 30 31 32 33 34 35 36 37 38 39 40 41 42 43 44 45 46 47 48 49 50

000
ASUS43 KGRB 021859
RWRGRB

NORTH-CENTRAL AND NORTHEAST WISCONSIN REGIONAL WEATHER ROUNDUP
NATIONAL WEATHER SERVICE GREEN BAY WI
100 PM CST MON MAR 02 2015

WIZ005-009-010>012-018-019-022000-
NORTH CENTRAL WISCONSIN

CITY           SKY/WX    TMP DP  RH WIND       PRES   REMARKS
IRONWOOD       SUNNY     23   7  50 W7        30.32F
MANITOWISH WTR NOT AVBL
ARBOR VITAE    NOT AVBL
EAGLE RIVER    NOT AVBL
LAND O LAKES   NOT AVBL
RHINELANDER    SUNNY     23   3  42 W9        30.34F
PHILLIPS       NOT AVBL
ANTIGO         NOT AVBL
TOMAHAWK       NOT AVBL
MERRILL        NOT AVBL
$$

WIZ013-073-022000-
NORTHEAST WISCONSIN

CITY           SKY/WX    TMP DP  RH WIND       PRES   REMARKS
IRON MOUNTAIN  SUNNY     27   5  39 VRB3      30.33F
MARINETTE      SUNNY     27   7  43 SW3       30.41F
$$

WIZ017-030-035>037-045-022000-
CENTRAL WISCONSIN

CITY           SKY/WX    TMP DP  RH WIND       PRES   REMARKS
MEDFORD        NOT AVBL
WAUSAU         SUNNY     21   5  50 W9        30.39F
MOSINEE        NOT AVBL
MARSHFIELD     SUNNY     22   5  48 N6        30.41F
WISC RAPIDS    SUNNY     26   3  37 N6        30.43F
STEVENS POINT  NOT AVBL
WAUPACA        NOT AVBL
SHAWANO        NOT AVBL
CLINTONVILLE   NOT AVBL
$$

WIZ038-039-048-051-022000-
FOX VALLEY

CITY           SKY/WX    TMP DP  RH WIND       PRES   REMARKS
NWS GREEN BAY  SUNNY     26   9  48 SW10      30.44F
APPLETON       MOSUNNY   25   7  46 SW7       30.44F
OSHKOSH        SUNNY     24   8  50 SW7       30.44F
FOND DU LAC    SUNNY     25   8  48 VRB6      30.45F
$$

WIZ022-050-052-022000-
EAST CENTRAL WISCONSIN

CITY           SKY/WX    TMP DP  RH WIND       PRES   REMARKS
STURGEON BAY   SUNNY     23   5  46 W7        30.44F
MANITOWOC      NOT AVBL
SHEBOYGAN      SUNNY     25   8  48 SW3       30.45F
$$

LMZ563-521-522-541>543-022000-
LAKESHORE

STATION/POSITION TIME  TEMP    WIND        PRES    VSBY  WAVE
                       AIR SEA DIR/SP/G                  HT/PER
                 (UTC) (F)     (DEG/KT/KT) (MB)    (MI)  (FT/S)
SHEBOYGAN LKSHOR 1800   23     210/  2/  3 1033.3F
KEWAUNEE LKSHORE 1800   24     270/  3/  8 1030.4F
NORTHPORT PIER   1800   25     250/  6/ 10 1030.5S
SISTER BAY LKSHO 1800   38     280/  8/ 10   N/A
CHAMBERS ISLAND  1800   24     190/  6/ 11 1031.2S
MENOMINEE LKSHOR 1800   26     260/  7     1031.0F
$$



USA.gov is the U.S. government's official web portal to all federal, state and local government web resources and services.